{"data":{"norad_id":69341,"epoch":"2026-09-19T22:35:52.844640Z","epoch_age_seconds":77148,"freshness":"FRESH","line1":"1 69341U 26122N   26262.94158385  .00011168  00000+0  34765-3 0  9991","line2":"2 69341  97.2848 291.5647 0001095  87.7243 272.4125 15.33453952 16711","mean_motion":15.33453952,"eccentricity":0.0001095,"inclination_deg":97.2848,"raan_deg":291.5647,"arg_perigee_deg":87.7243,"mean_anomaly_deg":272.4125,"bstar":0.00034765,"rev_number":1671,"period_min":93.905656451039,"perigee_km":464.76715969137,"apogee_km":466.26591981657,"semimajor_km":6843.653539754,"source":"CELESTRAK","updated_at":"2026-09-20T09:00:44.161488Z"}}